^^

..:: Storico WU ::..




Lo storico viene creato da WUnderground con i dati che la stazione Meteomincio invia al loro server. L' aggiornamento viene fatto ogni 5 minuti circa, tuttavia possono esserci intervalli pił ampi a causa di errori, interruzioni di servizio o problemi nell' invio tramite FTP.


Storico stazione MeteoMincio
Giorno Sommario per Gennaio 31, 2022 Unità:  Inglese    Metrico   Entrambi
Giorno Settimana Mese Anno
  Max: Min: Media:
Temperatura: 48.2 °F 28.4 °F 36.9 °F
Dew Point: 41 °F 26.6 °F 33.8 °F
Umidità: 100% 73% 89%
Velocità vento: 8.1mph 0mph 2.4mph
Raffica: 10.6mph - -
Direzione- - South
Pressione: 30.1 in 29.7 in -
Precipitazioni: 0 in    
 
 
Tabulato Dati per Gennaio 31, 2022
Ora Temperatura Dew Point Pressione Direzione Velocità vento Raffica Umidità Intensità pioggia (oraria) Info solare Situazione
00:04 33.8 °F 32 °F 30.1 in NNE 2.5 mph 3.7 mph 94% 0 in 0.00 W/m2 unknown
00:09 33.8 °F 32 °F 30.1 in NNE 1.2 mph 3.1 mph 94% 0 in 0.00 W/m2 unknown
00:14 33.8 °F 32 °F 30.1 in NNE 1.9 mph 3.7 mph 94% 0 in 0.00 W/m2 unknown
00:19 33.8 °F 32 °F 30.1 in NNE 1.2 mph 3.1 mph 94% 0 in 0.00 W/m2 unknown
00:24 33.8 °F 32 °F 30.1 in NNE 1.2 mph 2.5 mph 94% 0 in 0.00 W/m2 unknown
00:29 33.8 °F 32 °F 30.1 in NNE 2.5 mph 3.7 mph 93% 0 in 0.00 W/m2 unknown
00:34 33.8 °F 32 °F 30.1 in NNE 3.1 mph 3.7 mph 94% 0 in 0.00 W/m2 unknown
00:39 33.8 °F 32 °F 30.1 in NNE 3.1 mph 3.7 mph 95% 0 in 0.00 W/m2 unknown
00:44 33.8 °F 32 °F 30.1 in North 3.1 mph 3.7 mph 95% 0 in 0.00 W/m2 unknown
00:49 33.8 °F 32 °F 30.1 in North 1.9 mph 3.1 mph 95% 0 in 0.00 W/m2 unknown
00:54 32 °F 30.2 °F 30.1 in NNE 1.9 mph 2.5 mph 94% 0 in 0.00 W/m2 unknown
00:59 32 °F 30.2 °F 30.1 in East 1.2 mph 2.5 mph 94% 0 in 0.00 W/m2 unknown
01:04 32 °F 30.2 °F 30.1 in ENE 1.2 mph 2.5 mph 94% 0 in 0.00 W/m2 unknown
01:09 32 °F 30.2 °F 30.1 in NNE 3.1 mph 3.7 mph 94% 0 in 0.00 W/m2 unknown
01:14 32 °F 32 °F 30.1 in NNE 3.1 mph 3.7 mph 95% 0 in 0.00 W/m2 unknown
01:19 32 °F 32 °F 30.1 in NNE 1.2 mph 2.5 mph 95% 0 in 0.00 W/m2 unknown
01:24 32 °F 30.2 °F 30.1 in Calm   1.9 mph 94% 0 in 0.00 W/m2 unknown
01:29 32 °F 30.2 °F 30.1 in NNE 1.2 mph 2.5 mph 94% 0 in 0.00 W/m2 unknown
01:34 32 °F 30.2 °F 30.1 in NNE 1.2 mph 2.5 mph 94% 0 in 0.00 W/m2 unknown
01:39 32 °F 30.2 °F 30.1 in NNE 1.2 mph 2.5 mph 94% 0 in 0.00 W/m2 unknown
01:44 32 °F 30.2 °F 30.1 in NNE 1.2 mph 2.5 mph 94% 0 in 0.00 W/m2 unknown
01:49 32 °F 30.2 °F 30.1 in NNE 1.2 mph 2.5 mph 95% 0 in 0.00 W/m2 unknown
01:54 30.2 °F 30.2 °F 30.1 in NNE 1.9 mph 2.5 mph 94% 0 in 0.00 W/m2 unknown
01:59 32 °F 30.2 °F 30.1 in NNE 1.9 mph 2.5 mph 95% 0 in 0.00 W/m2 unknown
02:04 32 °F 30.2 °F 30.1 in NNE 1.9 mph 3.1 mph 95% 0 in 0.00 W/m2 unknown
02:09 32 °F 30.2 °F 30.1 in NE 1.9 mph 2.5 mph 95% 0 in 0.00 W/m2 unknown
02:14 30.2 °F 28.4 °F 30.1 in ENE 1.9 mph 2.5 mph 95% 0 in 0.00 W/m2 unknown
02:19 30.2 °F 28.4 °F 30.1 in ENE 1.9 mph 2.5 mph 95% 0 in 0.00 W/m2 unknown
02:24 30.2 °F 28.4 °F 30.1 in NE 1.9 mph 2.5 mph 95% 0 in 0.00 W/m2 unknown
02:29 32 °F 30.2 °F 30.1 in NNE 1.9 mph 2.5 mph 96% 0 in 0.00 W/m2 unknown
02:34 32 °F 30.2 °F 30.1 in NNE 1.2 mph 2.5 mph 96% 0 in 0.00 W/m2 unknown
02:39 30.2 °F 30.2 °F 30.1 in Calm   1.9 mph 95% 0 in 0.00 W/m2 unknown
02:44 30.2 °F 30.2 °F 30.1 in Calm     95% 0 in 0.00 W/m2 unknown
02:49 30.2 °F 30.2 °F 30 in Calm     96% 0 in 0.00 W/m2 unknown
02:54 30.2 °F 30.2 °F 30 in Calm     96% 0 in 0.00 W/m2 unknown
02:59 30.2 °F 30.2 °F 30 in Calm     95% 0 in 0.00 W/m2 unknown
03:04 30.2 °F 28.4 °F 30 in Calm     95% 0 in 0.00 W/m2 unknown
03:09 30.2 °F 28.4 °F 30 in Calm     96% 0 in 0.00 W/m2 unknown
03:14 30.2 °F 28.4 °F 30 in Calm     95% 0 in 0.00 W/m2 unknown
03:19 28.4 °F 28.4 °F 30 in Calm     96% 0 in 0.00 W/m2 unknown
03:24 30.2 °F 28.4 °F 30 in Calm     96% 0 in 0.00 W/m2 unknown
03:29 30.2 °F 28.4 °F 30 in Calm     96% 0 in 0.00 W/m2 unknown
03:34 30.2 °F 28.4 °F 30 in Calm     96% 0 in 0.00 W/m2 unknown
03:39 30.2 °F 28.4 °F 30 in Calm     96% 0 in 0.00 W/m2 unknown
03:44 30.2 °F 28.4 °F 30 in Calm     95% 0 in 0.00 W/m2 unknown
03:49 30.2 °F 28.4 °F 30 in Calm     95% 0 in 0.00 W/m2 unknown
03:54 30.2 °F 28.4 °F 30 in Calm     95% 0 in 0.00 W/m2 unknown
03:59 30.2 °F 28.4 °F 30 in Calm     95% 0 in 0.00 W/m2 unknown
04:04 28.4 °F 28.4 °F 30 in Calm     95% 0 in 0.00 W/m2 unknown
04:09 30.2 °F 28.4 °F 30 in Calm     96% 0 in 0.00 W/m2 unknown
04:14 30.2 °F 28.4 °F 30 in Calm     96% 0 in 0.00 W/m2 unknown
04:19 30.2 °F 28.4 °F 30 in Calm     95% 0 in 0.00 W/m2 unknown
04:24 28.4 °F 28.4 °F 30 in Calm     94% 0 in 0.00 W/m2 unknown
04:29 28.4 °F 26.6 °F 30 in WSW 2.5 mph 3.7 mph 94% 0 in 0.00 W/m2 unknown
04:34 28.4 °F 26.6 °F 30 in WSW 2.5 mph 3.7 mph 95% 0 in 0.00 W/m2 unknown
04:39 28.4 °F 28.4 °F 30 in West 2.5 mph 3.7 mph 95% 0 in 0.00 W/m2 unknown
04:44 28.4 °F 28.4 °F 30 in WSW 2.5 mph 3.7 mph 95% 0 in 0.00 W/m2 unknown
04:49 28.4 °F 28.4 °F 30 in WSW 1.9 mph 3.1 mph 95% 0 in 0.00 W/m2 unknown
04:54 28.4 °F 28.4 °F 30 in Calm   1.9 mph 95% 0 in 0.00 W/m2 unknown
04:59 30.2 °F 28.4 °F 30 in WSW 1.2 mph 2.5 mph 96% 0 in 0.00 W/m2 unknown
05:04 30.2 °F 28.4 °F 30 in Calm   1.9 mph 96% 0 in 0.00 W/m2 unknown
05:09 30.2 °F 28.4 °F 30 in WSW 1.9 mph 3.1 mph 95% 0 in 0.00 W/m2 unknown
05:14 28.4 °F 28.4 °F 30 in SW 2.5 mph 3.7 mph 95% 0 in 0.00 W/m2 unknown
05:19 28.4 °F 28.4 °F 30 in SW 1.9 mph 3.1 mph 95% 0 in 0.00 W/m2 unknown
05:24 28.4 °F 28.4 °F 30 in Calm   1.9 mph 95% 0 in 0.00 W/m2 unknown
05:29 30.2 °F 28.4 °F 30 in SW 0.6 mph 1.2 mph 95% 0 in 0.00 W/m2 unknown
05:34 30.2 °F 28.4 °F 30 in SW 1.2 mph 1.2 mph 95% 0 in 0.00 W/m2 unknown
05:39 30.2 °F 28.4 °F 30 in WSW 1.9 mph 3.7 mph 95% 0 in 0.00 W/m2 unknown
05:44 28.4 °F 28.4 °F 30 in WSW 1.9 mph 3.1 mph 95% 0 in 0.00 W/m2 unknown
05:49 28.4 °F 28.4 °F 30 in WSW 1.9 mph 2.5 mph 95% 0 in 0.00 W/m2 unknown
05:54 28.4 °F 26.6 °F 29.9 in WSW 1.9 mph 3.7 mph 95% 0 in 0.00 W/m2 unknown
05:59 28.4 °F 26.6 °F 29.9 in WSW 1.9 mph 3.1 mph 95% 0 in 0.00 W/m2 unknown
06:04 28.4 °F 28.4 °F 30 in WNW 2.5 mph 3.7 mph 96% 0 in 0.00 W/m2 unknown
06:09 30.2 °F 28.4 °F 30 in NW 2.5 mph 3.7 mph 96% 0 in 0.00 W/m2 unknown
06:14 30.2 °F 28.4 °F 30 in NNW 1.9 mph 3.1 mph 96% 0 in 0.00 W/m2 unknown
06:19 30.2 °F 28.4 °F 29.9 in NNW 1.2 mph 2.5 mph 96% 0 in 0.00 W/m2 unknown
06:24 30.2 °F 28.4 °F 29.9 in North 2.5 mph 3.7 mph 96% 0 in 0.00 W/m2 unknown
06:29 30.2 °F 28.4 °F 29.9 in North 2.5 mph 3.7 mph 96% 0 in 0.00 W/m2 unknown
06:34 30.2 °F 30.2 °F 29.9 in North 1.9 mph 3.7 mph 96% 0 in 0.00 W/m2 unknown
06:39 30.2 °F 30.2 °F 29.9 in North 1.9 mph 3.7 mph 96% 0 in 0.00 W/m2 unknown
06:44 30.2 °F 30.2 °F 29.9 in North 1.2 mph 3.1 mph 96% 0 in 0.00 W/m2 unknown
06:49 30.2 °F 30.2 °F 29.9 in NNE 1.9 mph 3.7 mph 96% 0 in 0.00 W/m2 unknown
06:54 30.2 °F 30.2 °F 29.9 in North 3.1 mph 5 mph 96% 0 in 0.00 W/m2 unknown
06:59 30.2 °F 30.2 °F 29.9 in North 1.9 mph 5 mph 96% 0 in 0.00 W/m2 unknown
07:04 30.2 °F 30.2 °F 29.9 in NNE 1.9 mph 3.1 mph 96% 0 in 0.00 W/m2 unknown
07:09 30.2 °F 30.2 °F 29.9 in NNE 1.2 mph 2.5 mph 96% 0 in 0.00 W/m2 unknown
07:14 30.2 °F 30.2 °F 29.9 in NE 1.9 mph 2.5 mph 96% 0 in 0.00 W/m2 unknown
07:19 30.2 °F 30.2 °F 29.9 in ENE 1.9 mph 3.1 mph 95% 0 in 0.00 W/m2 unknown
07:24 30.2 °F 28.4 °F 29.9 in East 1.9 mph 3.7 mph 95% 0 in 0.00 W/m2 unknown
07:29 30.2 °F 28.4 °F 29.9 in ENE 2.5 mph 3.7 mph 96% 0 in 0.00 W/m2 unknown
07:34 30.2 °F 28.4 °F 29.9 in NE 2.5 mph 3.7 mph 96% 0 in 0.00 W/m2 unknown
07:39 30.2 °F 28.4 °F 29.9 in NE 1.9 mph 3.1 mph 96% 0 in 0.00 W/m2 unknown
07:44 30.2 °F 28.4 °F 29.9 in ENE 1.9 mph 2.5 mph 96% 0 in 0.00 W/m2 unknown
07:49 30.2 °F 28.4 °F 29.9 in ESE 2.5 mph 3.7 mph 96% 0 in 5.00 W/m2 unknown
07:54 30.2 °F 28.4 °F 29.9 in SSE 1.9 mph 3.7 mph 96% 0 in 7.00 W/m2 unknown
07:59 30.2 °F 28.4 °F 29.9 in SSE 1.9 mph 3.7 mph 96% 0 in 11.00 W/m2 unknown
08:04 30.2 °F 30.2 °F 29.9 in ESE 1.2 mph 3.1 mph 96% 0 in 14.00 W/m2 unknown
08:09 30.2 °F 30.2 °F 29.9 in ESE 1.2 mph 1.9 mph 96% 0 in 16.00 W/m2 unknown
08:14 30.2 °F 30.2 °F 29.9 in ESE 0.6 mph 1.2 mph 96% 0 in 21.00 W/m2 unknown
08:19 30.2 °F 30.2 °F 29.9 in Calm   1.2 mph 96% 0 in 25.00 W/m2 unknown
08:24 30.2 °F 30.2 °F 29.9 in Calm   1.2 mph 96% 0 in 23.00 W/m2 unknown
08:29 32 °F 30.2 °F 29.9 in ESE 0.6 mph 1.2 mph 96% 0 in 23.00 W/m2 unknown
08:34 32 °F 30.2 °F 29.9 in South 1.2 mph 2.5 mph 96% 0 in 25.00 W/m2 unknown
08:39 30.2 °F 30.2 °F 29.9 in SSW 1.2 mph 1.9 mph 96% 0 in 25.00 W/m2 unknown
08:44 30.2 °F 30.2 °F 29.9 in Calm   1.2 mph 96% 0 in 26.00 W/m2 unknown
08:49 30.2 °F 30.2 °F 29.9 in Calm     96% 0 in 47.00 W/m2 unknown
08:54 30.2 °F 30.2 °F 29.9 in Calm     96% 0 in 77.00 W/m2 unknown
08:59 30.2 °F 28.4 °F 29.9 in Calm     95% 0 in 116.00 W/m2 unknown
09:04 30.2 °F 30.2 °F 29.9 in Calm     96% 0 in 174.00 W/m2 unknown
09:09 32 °F 30.2 °F 29.9 in WSW 0.6 mph 2.5 mph 96% 0 in 176.00 W/m2 unknown
09:14 32 °F 30.2 °F 29.9 in WSW 1.9 mph 2.5 mph 96% 0 in 125.00 W/m2 unknown
09:19 32 °F 30.2 °F 29.9 in WSW 1.2 mph 2.5 mph 96% 0 in 118.00 W/m2 unknown
09:24 32 °F 32 °F 29.9 in WSW 1.9 mph 3.7 mph 96% 0 in 104.00 W/m2 unknown
09:29 32 °F 32 °F 29.9 in SW 3.1 mph 3.7 mph 96% 0 in 100.00 W/m2 unknown
09:34 33.8 °F 32 °F 29.9 in SW 2.5 mph 3.7 mph 96% 0 in 100.00 W/m2 unknown
09:39 33.8 °F 32 °F 29.9 in SSW 3.7 mph 5 mph 96% 0 in 98.00 W/m2 unknown
09:44 33.8 °F 32 °F 29.9 in SW 3.1 mph 5 mph 95% 0 in 100.00 W/m2 unknown
09:49 33.8 °F 32 °F 29.9 in SW 1.9 mph 3.7 mph 96% 0 in 100.00 W/m2 unknown
09:54 33.8 °F 32 °F 29.9 in SSW 1.9 mph 3.7 mph 96% 0 in 100.00 W/m2 unknown
09:59 33.8 °F 32 °F 29.9 in SSW 1.2 mph 3.1 mph 95% 0 in 98.00 W/m2 unknown
10:04 33.8 °F 33.8 °F 29.9 in SSW 0.6 mph 1.2 mph 95% 0 in 113.00 W/m2 unknown
10:09 35.6 °F 33.8 °F 29.9 in WSW 1.2 mph 2.5 mph 95% 0 in 113.00 W/m2 unknown
10:14 35.6 °F 33.8 °F 29.9 in NW 1.2 mph 2.5 mph 95% 0 in 111.00 W/m2 unknown
10:19 35.6 °F 33.8 °F 29.9 in North 1.2 mph 2.5 mph 95% 0 in 97.00 W/m2 unknown
10:24 35.6 °F 33.8 °F 29.9 in North 1.9 mph 2.5 mph 95% 0 in 102.00 W/m2 unknown
10:29 35.6 °F 33.8 °F 29.9 in NNE 1.9 mph 3.7 mph 95% 0 in 120.00 W/m2 unknown
10:34 35.6 °F 33.8 °F 29.9 in North 1.2 mph 2.5 mph 95% 0 in 130.00 W/m2 unknown
10:39 35.6 °F 35.6 °F 29.9 in North 0.6 mph 1.9 mph 96% 0 in 160.00 W/m2 unknown
10:44 35.6 °F 33.8 °F 29.8 in NNW 1.2 mph 2.5 mph 95% 0 in 144.00 W/m2 unknown
10:49 35.6 °F 35.6 °F 29.8 in WNW 1.9 mph 3.7 mph 100% 0 in 155.00 W/m2 unknown
10:54 35.6 °F 35.6 °F 29.8 in NW 2.5 mph 3.7 mph 95% 0 in 283.00 W/m2 unknown
10:59 37.4 °F 35.6 °F 29.8 in NW 3.1 mph 3.7 mph 95% 0 in 276.00 W/m2 unknown
11:04 37.4 °F 35.6 °F 29.8 in NNW 1.9 mph 3.7 mph 95% 0 in 158.00 W/m2 unknown
11:09 37.4 °F 37.4 °F 29.8 in North 3.1 mph 3.7 mph 95% 0 in 387.00 W/m2 unknown
11:14 39.2 °F 37.4 °F 29.8 in North 2.5 mph 3.7 mph 95% 0 in 424.00 W/m2 unknown
11:19 39.2 °F 37.4 °F 29.8 in North 2.5 mph 3.7 mph 93% 0 in 376.00 W/m2 unknown
11:24 39.2 °F 37.4 °F 29.8 in North 3.1 mph 3.7 mph 92% 0 in 174.00 W/m2 unknown
11:29 39.2 °F 37.4 °F 29.8 in North 3.1 mph 3.7 mph 92% 0 in 360.00 W/m2 unknown
11:34 39.2 °F 37.4 °F 29.8 in North 3.7 mph 3.7 mph 92% 0 in 274.00 W/m2 unknown
11:39 39.2 °F 37.4 °F 29.8 in North 3.1 mph 3.7 mph 90% 0 in 244.00 W/m2 unknown
11:44 39.2 °F 37.4 °F 29.8 in NNE 1.9 mph 3.7 mph 91% 0 in 290.00 W/m2 unknown
11:49 41 °F 37.4 °F 29.8 in NE 1.2 mph 3.1 mph 91% 0 in 339.00 W/m2 unknown
11:54 41 °F 37.4 °F 29.8 in NE 1.2 mph 2.5 mph 90% 0 in 350.00 W/m2 unknown
11:59 41 °F 37.4 °F 29.8 in East 1.9 mph 2.5 mph 89% 0 in 401.00 W/m2 unknown
12:04 41 °F 37.4 °F 29.8 in East 1.9 mph 3.7 mph 89% 0 in 396.00 W/m2 unknown
12:09 41 °F 39.2 °F 29.8 in NE 1.9 mph 3.7 mph 88% 0 in 406.00 W/m2 unknown
12:14 42.8 °F 39.2 °F 29.8 in NNE 1.2 mph 3.1 mph 88% 0 in 413.00 W/m2 unknown
12:19 42.8 °F 39.2 °F 29.8 in North 1.9 mph 3.7 mph 87% 0 in 417.00 W/m2 unknown
12:24 42.8 °F 39.2 °F 29.8 in NNE 1.2 mph 3.1 mph 86% 0 in 417.00 W/m2 unknown
12:29 44.6 °F 39.2 °F 29.8 in North 1.2 mph 2.5 mph 87% 0 in 415.00 W/m2 unknown
12:34 44.6 °F 39.2 °F 29.8 in NW 1.9 mph 2.5 mph 83% 0 in 411.00 W/m2 unknown
12:39 44.6 °F 39.2 °F 29.8 in WNW 1.9 mph 2.5 mph 85% 0 in 408.00 W/m2 unknown
12:44 44.6 °F 39.2 °F 29.8 in West 2.5 mph 3.7 mph 83% 0 in 408.00 W/m2 unknown
12:49 44.6 °F 39.2 °F 29.8 in NW 2.5 mph 3.7 mph 83% 0 in 396.00 W/m2 unknown
12:54 46.4 °F 39.2 °F 29.8 in NNW 1.9 mph 3.1 mph 81% 0 in 397.00 W/m2 unknown
12:59 46.4 °F 39.2 °F 29.7 in WNW 2.5 mph 3.7 mph 80% 0 in 403.00 W/m2 unknown
13:04 46.4 °F 39.2 °F 29.7 in West 1.9 mph 3.7 mph 78% 0 in 404.00 W/m2 unknown
13:09 46.4 °F 39.2 °F 29.7 in WSW 2.5 mph 3.7 mph 78% 0 in 401.00 W/m2 unknown
13:14 46.4 °F 39.2 °F 29.7 in SW 3.7 mph 6.2 mph 78% 0 in 401.00 W/m2 unknown
13:19 46.4 °F 41 °F 29.7 in SW 3.7 mph 6.2 mph 78% 0 in 401.00 W/m2 unknown
13:24 46.4 °F 39.2 °F 29.7 in SSW 5 mph 6.8 mph 77% 0 in 403.00 W/m2 unknown
13:29 46.4 °F 39.2 °F 29.7 in SSW 5 mph 6.8 mph 76% 0 in 404.00 W/m2 unknown
13:34 46.4 °F 39.2 °F 29.7 in SSW 3.7 mph 6.8 mph 76% 0 in 396.00 W/m2 unknown
13:39 46.4 °F 39.2 °F 29.7 in WSW 1.9 mph 5 mph 76% 0 in 445.00 W/m2 unknown
13:44 48.2 °F 39.2 °F 29.7 in SSW 3.1 mph 3.7 mph 76% 0 in 446.00 W/m2 unknown
13:49 46.4 °F 39.2 °F 29.7 in SSE 1.9 mph 3.7 mph 76% 0 in 406.00 W/m2 unknown
13:54 48.2 °F 39.2 °F 29.7 in North 1.2 mph 2.5 mph 76% 0 in 403.00 W/m2 unknown
13:59 48.2 °F 41 °F 29.7 in NNW 1.9 mph 3.7 mph 76% 0 in 394.00 W/m2 unknown
14:04 48.2 °F 41 °F 29.7 in WSW 1.9 mph 3.7 mph 74% 0 in 338.00 W/m2 unknown
14:09 48.2 °F 39.2 °F 29.7 in SE 1.9 mph 3.7 mph 75% 0 in 345.00 W/m2 unknown
14:14 48.2 °F 39.2 °F 29.7 in NW 1.2 mph 3.1 mph 75% 0 in 390.00 W/m2 unknown
14:19 48.2 °F 41 °F 29.7 in South 4.3 mph 6.2 mph 74% 0 in 408.00 W/m2 unknown
14:24 48.2 °F 41 °F 29.7 in East 4.3 mph 6.8 mph 74% 0 in 357.00 W/m2 unknown
14:29 48.2 °F 39.2 °F 29.7 in ESE 1.9 mph 3.7 mph 74% 0 in 357.00 W/m2 unknown
14:34 48.2 °F 41 °F 29.7 in ESE 1.9 mph 3.7 mph 75% 0 in 221.00 W/m2 unknown
14:39 48.2 °F 41 °F 29.7 in ENE 3.1 mph 5 mph 75% 0 in 202.00 W/m2 unknown
14:44 48.2 °F 41 °F 29.7 in ENE 4.3 mph 6.2 mph 75% 0 in 139.00 W/m2 unknown
14:49 48.2 °F 41 °F 29.7 in East 4.3 mph 6.2 mph 75% 0 in 167.00 W/m2 unknown
14:54 48.2 °F 41 °F 29.7 in ENE 3.7 mph 6.2 mph 75% 0 in 183.00 W/m2 unknown
14:59 48.2 °F 41 °F 29.7 in ENE 3.1 mph 6.2 mph 75% 0 in 135.00 W/m2 unknown
15:04 48.2 °F 41 °F 29.7 in East 1.2 mph 3.1 mph 75% 0 in 241.00 W/m2 unknown
15:09 48.2 °F 41 °F 29.7 in ESE 2.5 mph 3.7 mph 75% 0 in 241.00 W/m2 unknown
15:14 48.2 °F 39.2 °F 29.7 in ESE 3.7 mph 6.2 mph 73% 0 in 239.00 W/m2 unknown
15:19 48.2 °F 39.2 °F 29.7 in East 5 mph 5.6 mph 73% 0 in 236.00 W/m2 unknown
15:24 48.2 °F 39.2 °F 29.7 in East 5.6 mph 6.8 mph 74% 0 in 221.00 W/m2 unknown
15:29 48.2 °F 39.2 °F 29.7 in East 5 mph 6.2 mph 74% 0 in 202.00 W/m2 unknown
15:34 48.2 °F 39.2 °F 29.7 in ESE 3.1 mph 6.2 mph 73% 0 in 192.00 W/m2 unknown
15:39 48.2 °F 39.2 °F 29.7 in East 2.5 mph 3.7 mph 74% 0 in 188.00 W/m2 unknown
15:44 48.2 °F 39.2 °F 29.7 in ESE 2.5 mph 3.7 mph 74% 0 in 167.00 W/m2 unknown
15:49 48.2 °F 39.2 °F 29.7 in SSE 1.9 mph 3.7 mph 74% 0 in 149.00 W/m2 unknown
15:54 48.2 °F 39.2 °F 29.7 in SSW 1.2 mph 3.1 mph 73% 0 in 144.00 W/m2 unknown
15:59 48.2 °F 39.2 °F 29.7 in South 1.9 mph 2.5 mph 73% 0 in 139.00 W/m2 unknown
16:04 48.2 °F 39.2 °F 29.7 in South 1.9 mph 2.5 mph 73% 0 in 135.00 W/m2 unknown
16:09 48.2 °F 39.2 °F 29.7 in SW 2.5 mph 3.7 mph 73% 0 in 125.00 W/m2 unknown
16:14 48.2 °F 39.2 °F 29.7 in SW 2.5 mph 3.7 mph 73% 0 in 111.00 W/m2 unknown
16:19 48.2 °F 39.2 °F 29.7 in SE 1.2 mph 3.7 mph 73% 0 in 105.00 W/m2 unknown
16:24 48.2 °F 39.2 °F 29.7 in SSW 2.5 mph 3.7 mph 74% 0 in 97.00 W/m2 unknown
16:29 48.2 °F 39.2 °F 29.7 in SE 3.7 mph 5 mph 74% 0 in 81.00 W/m2 unknown
16:34 48.2 °F 39.2 °F 29.7 in ENE 3.1 mph 5 mph 74% 0 in 88.00 W/m2 unknown
16:39 48.2 °F 39.2 °F 29.7 in ENE 2.5 mph 5 mph 75% 0 in 88.00 W/m2 unknown
16:44 48.2 °F 39.2 °F 29.7 in ENE 2.5 mph 3.7 mph 74% 0 in 95.00 W/m2 unknown
16:49 48.2 °F 39.2 °F 29.7 in ENE 2.5 mph 5 mph 75% 0 in 84.00 W/m2 unknown
16:54 48.2 °F 39.2 °F 29.7 in East 3.7 mph 5 mph 75% 0 in 70.00 W/m2 unknown
16:59 48.2 °F 39.2 °F 29.7 in ENE 1.9 mph 5 mph 75% 0 in 33.00 W/m2 unknown
17:04 46.4 °F 39.2 °F 29.7 in SSW 5 mph 6.2 mph 77% 0 in 30.00 W/m2 unknown
17:09 46.4 °F 41 °F 29.7 in SSW 5 mph 6.2 mph 78% 0 in 19.00 W/m2 unknown
17:14 46.4 °F 39.2 °F 29.7 in SSW 5 mph 6.2 mph 79% 0 in 14.00 W/m2 unknown
17:19 46.4 °F 39.2 °F 29.7 in SW 2.5 mph 6.2 mph 80% 0 in 11.00 W/m2 unknown
17:24 46.4 °F 39.2 °F 29.7 in SE 5.6 mph 6.8 mph 81% 0 in 7.00 W/m2 unknown
17:29 44.6 °F 39.2 °F 29.7 in ESE 6.2 mph 6.8 mph 81% 0 in 0.00 W/m2 unknown
17:34 44.6 °F 39.2 °F 29.7 in ESE 3.7 mph 6.8 mph 81% 0 in 0.00 W/m2 unknown
17:39 44.6 °F 39.2 °F 29.7 in ESE 2.5 mph 3.7 mph 82% 0 in 0.00 W/m2 unknown
17:44 44.6 °F 39.2 °F 29.7 in South 2.5 mph 3.7 mph 83% 0 in 0.00 W/m2 unknown
17:49 44.6 °F 39.2 °F 29.7 in SW 2.5 mph 3.7 mph 83% 0 in 0.00 W/m2 unknown
17:54 42.8 °F 39.2 °F 29.7 in SSW 2.5 mph 3.7 mph 84% 0 in 0.00 W/m2 unknown
17:59 42.8 °F 37.4 °F 29.7 in South 1.2 mph 3.1 mph 85% 0 in 0.00 W/m2 unknown
18:04 42.8 °F 37.4 °F 29.7 in SSW 1.9 mph 2.5 mph 85% 0 in 0.00 W/m2 unknown
18:09 42.8 °F 37.4 °F 29.7 in SSW 3.1 mph 3.7 mph 86% 0 in 0.00 W/m2 unknown
18:14 41 °F 37.4 °F 29.7 in WSW 3.1 mph 3.7 mph 86% 0 in 0.00 W/m2 unknown
18:19 41 °F 37.4 °F 29.7 in SW 3.1 mph 3.7 mph 86% 0 in 0.00 W/m2 unknown
18:24 41 °F 37.4 °F 29.7 in South 1.9 mph 3.7 mph 88% 0 in 0.00 W/m2 unknown
18:29 41 °F 37.4 °F 29.7 in SSE 2.5 mph 3.7 mph 88% 0 in 0.00 W/m2 unknown
18:34 41 °F 37.4 °F 29.7 in South 3.7 mph 5 mph 88% 0 in 0.00 W/m2 unknown
18:39 41 °F 37.4 °F 29.7 in South 3.7 mph 5 mph 88% 0 in 0.00 W/m2 unknown
18:44 41 °F 37.4 °F 29.7 in SSW 1.9 mph 3.7 mph 87% 0 in 0.00 W/m2 unknown
18:49 41 °F 37.4 °F 29.7 in SW 4.3 mph 5 mph 88% 0 in 0.00 W/m2 unknown
18:54 39.2 °F 37.4 °F 29.7 in South 3.1 mph 5 mph 89% 0 in 0.00 W/m2 unknown
18:59 39.2 °F 35.6 °F 29.7 in SSE 3.1 mph 3.7 mph 90% 0 in 0.00 W/m2 unknown
19:04 39.2 °F 37.4 °F 29.7 in SSE 3.1 mph 3.7 mph 90% 0 in 0.00 W/m2 unknown
19:09 39.2 °F 37.4 °F 29.8 in SE 2.5 mph 3.7 mph 89% 0 in 0.00 W/m2 unknown
19:14 39.2 °F 37.4 °F 29.8 in ESE 1.9 mph 3.1 mph 89% 0 in 0.00 W/m2 unknown
19:19 39.2 °F 35.6 °F 29.8 in SE 1.2 mph 2.5 mph 89% 0 in 0.00 W/m2 unknown
19:24 39.2 °F 35.6 °F 29.8 in South 1.9 mph 3.1 mph 90% 0 in 0.00 W/m2 unknown
19:29 39.2 °F 35.6 °F 29.8 in WSW 3.7 mph 3.7 mph 90% 0 in 0.00 W/m2 unknown
19:34 37.4 °F 35.6 °F 29.8 in SW 3.1 mph 3.7 mph 89% 0 in 0.00 W/m2 unknown
19:39 37.4 °F 33.8 °F 29.8 in SW 3.1 mph 3.7 mph 90% 0 in 0.00 W/m2 unknown
19:44 37.4 °F 35.6 °F 29.8 in SE 1.9 mph 3.7 mph 92% 0 in 0.00 W/m2 unknown
19:49 37.4 °F 35.6 °F 29.8 in SW 3.1 mph 3.7 mph 92% 0 in 0.00 W/m2 unknown
19:54 37.4 °F 33.8 °F 29.8 in SW 1.9 mph 3.1 mph 91% 0 in 0.00 W/m2 unknown
19:59 37.4 °F 33.8 °F 29.8 in WSW 4.3 mph 5 mph 91% 0 in 0.00 W/m2 unknown
20:04 35.6 °F 33.8 °F 29.8 in West 4.3 mph 5 mph 91% 0 in 0.00 W/m2 unknown
20:09 35.6 °F 33.8 °F 29.8 in WSW 1.2 mph 5 mph 93% 0 in 0.00 W/m2 unknown
20:14 35.6 °F 33.8 °F 29.8 in SW 2.5 mph 3.7 mph 93% 0 in 0.00 W/m2 unknown
20:19 35.6 °F 33.8 °F 29.8 in SW 1.9 mph 3.1 mph 93% 0 in 0.00 W/m2 unknown
20:24 35.6 °F 33.8 °F 29.8 in SW 2.5 mph 3.7 mph 93% 0 in 0.00 W/m2 unknown
20:29 35.6 °F 33.8 °F 29.8 in WSW 4.3 mph 5 mph 92% 0 in 0.00 W/m2 unknown
20:34 35.6 °F 33.8 °F 29.8 in WSW 5 mph 5 mph 92% 0 in 0.00 W/m2 unknown
20:39 35.6 °F 33.8 °F 29.8 in WSW 3.1 mph 5 mph 93% 0 in 0.00 W/m2 unknown
20:44 35.6 °F 33.8 °F 29.8 in WSW 3.1 mph 5 mph 93% 0 in 0.00 W/m2 unknown
20:49 35.6 °F 33.8 °F 29.8 in SW 1.9 mph 3.7 mph 93% 0 in 0.00 W/m2 unknown
20:54 35.6 °F 33.8 °F 29.8 in SE 3.7 mph 5 mph 93% 0 in 0.00 W/m2 unknown
20:59 35.6 °F 33.8 °F 29.8 in SE 3.1 mph 5 mph 93% 0 in 0.00 W/m2 unknown
21:04 35.6 °F 33.8 °F 29.8 in SE 5 mph 6.8 mph 93% 0 in 0.00 W/m2 unknown
21:09 35.6 °F 33.8 °F 29.8 in SSE 1.9 mph 6.8 mph 93% 0 in 0.00 W/m2 unknown
21:14 35.6 °F 33.8 °F 29.8 in SW 3.7 mph 3.7 mph 92% 0 in 0.00 W/m2 unknown
21:19 35.6 °F 33.8 °F 29.8 in SSW 4.3 mph 5 mph 92% 0 in 0.00 W/m2 unknown
21:24 35.6 °F 33.8 °F 29.8 in SW 5 mph 6.8 mph 92% 0 in 0.00 W/m2 unknown
21:29 35.6 °F 33.8 °F 29.8 in SW 5 mph 6.8 mph 92% 0 in 0.00 W/m2 unknown
21:34 35.6 °F 33.8 °F 29.8 in SW 3.7 mph 6.2 mph 92% 0 in 0.00 W/m2 unknown
21:39 35.6 °F 33.8 °F 29.8 in SW 4.3 mph 5 mph 92% 0 in 0.00 W/m2 unknown
21:44 35.6 °F 33.8 °F 29.8 in SW 3.1 mph 6.2 mph 92% 0 in 0.00 W/m2 unknown
21:49 35.6 °F 33.8 °F 29.8 in West 3.7 mph 6.2 mph 92% 0 in 0.00 W/m2 unknown
21:54 35.6 °F 33.8 °F 29.8 in West 4.3 mph 6.2 mph 92% 0 in 0.00 W/m2 unknown
21:59 35.6 °F 33.8 °F 29.8 in West 6.2 mph 8.1 mph 92% 0 in 0.00 W/m2 unknown
22:04 35.6 °F 33.8 °F 29.8 in West 6.2 mph 8.1 mph 92% 0 in 0.00 W/m2 unknown
22:09 37.4 °F 33.8 °F 29.8 in West 5.6 mph 8.1 mph 92% 0 in 0.00 W/m2 unknown
22:14 37.4 °F 33.8 °F 29.8 in West 5.6 mph 6.8 mph 92% 0 in 0.00 W/m2 unknown
22:19 37.4 °F 35.6 °F 29.8 in WNW 7.5 mph 10.6 mph 92% 0 in 0.00 W/m2 unknown
22:24 37.4 °F 35.6 °F 29.8 in West 8.1 mph 10.6 mph 92% 0 in 0.00 W/m2 unknown
22:29 37.4 °F 35.6 °F 29.8 in WNW 6.2 mph 9.9 mph 91% 0 in 0.00 W/m2 unknown
22:34 37.4 °F 35.6 °F 29.8 in WNW 6.2 mph 8.7 mph 91% 0 in 0.00 W/m2 unknown
22:39 37.4 °F 35.6 °F 29.8 in West 4.3 mph 6.8 mph 90% 0 in 0.00 W/m2 unknown
22:44 37.4 °F 35.6 °F 29.8 in West 5 mph 6.8 mph 89% 0 in 0.00 W/m2 unknown
22:49 37.4 °F 33.8 °F 29.8 in West 5 mph 6.8 mph 90% 0 in 0.00 W/m2 unknown
22:54 35.6 °F 33.8 °F 29.8 in West 5 mph 6.8 mph 91% 0 in 0.00 W/m2 unknown
22:59 37.4 °F 33.8 °F 29.8 in WNW 5.6 mph 6.8 mph 91% 0 in 0.00 W/m2 unknown
23:04 35.6 °F 33.8 °F 29.8 in WSW 3.1 mph 6.8 mph 90% 0 in 0.00 W/m2 unknown
23:09 35.6 °F 32 °F 29.8 in WSW 3.7 mph 3.7 mph 90% 0 in 0.00 W/m2 unknown
23:14 33.8 °F 32 °F 29.8 in SW 3.7 mph 3.7 mph 91% 0 in 0.00 W/m2 unknown
23:19 35.6 °F 32 °F 29.8 in SSW 4.3 mph 5 mph 91% 0 in 0.00 W/m2 unknown
23:24 35.6 °F 33.8 °F 29.8 in SW 3.1 mph 5 mph 91% 0 in 0.00 W/m2 unknown
23:29 35.6 °F 32 °F 29.8 in WSW 3.7 mph 3.7 mph 88% 0 in 0.00 W/m2 unknown
23:34 35.6 °F 32 °F 29.8 in West 3.1 mph 3.7 mph 87% 0 in 0.00 W/m2 unknown
23:39 35.6 °F 32 °F 29.8 in WSW 3.1 mph 3.7 mph 84% 0 in 0.00 W/m2 unknown
23:44 35.6 °F 32 °F 29.8 in SW 2.5 mph 3.7 mph 84% 0 in 0.00 W/m2 unknown
23:49 35.6 °F 30.2 °F 29.8 in WSW 3.1 mph 3.7 mph 84% 0 in 0.00 W/m2 unknown
23:54 35.6 °F 30.2 °F 29.8 in WSW 3.1 mph 3.7 mph 83% 0 in 0.00 W/m2 unknown
23:59 35.6 °F 30.2 °F 29.8 in West 3.7 mph 5 mph 82% 0 in 0.00 W/m2 unknown
Stazione Meteorologica MeteoMincio Rivalta s/M (MN)
Con i complimenti di Weather Underground - 4 mb



GLOSSARIO METEOROLOGICO
Vento
Il vento è prodotto dalla differenza di pressione tra due zone e serve per ristabilirne l'equilibrio. Dalla zona con pressione più alta l'aria affluisce a quella con pressione inferiore. Più le isobare (linee di ugual pressione) sono ravvicinate e più la forza del vento sarà intensa. Il vento è classificato dalla scala Beaufort. E' definito dalla sua direzione e dalla sua forza o, più esattamente, dalla sua velocità. Vento, pressione atmosferica e temperatura stanno in rapporto funzionale con l'andamento del tempo.
Share

Non seguire questo link o sarai bannato dal sito!